Weather History for Quakertown, PA

Change the Weather History Date:

Monday, November 11, 2013

  Actual Average (KABE) Record (KABE)
Temperature  
Mean Temperature 42 °F 44 °F  
Max Temperature 51 °F 55 °F 72 °F (1949)
Min Temperature 32 °F 34 °F 19 °F (1954)
Degree Days  
Heating Degree Days 24 21  
Month to date heating degree days 210  
Since 1 July heating degree days 721  
Cooling Degree Days 0 0  
Month to date cooling degree days 0  
Year to date cooling degree days 757  
Moisture  
Dew Point 29 °F    
Average Humidity 55    
Maximum Humidity 80    
Minimum Humidity 43    
Precipitation  
Precipitation 0.00 in 0.10 in 1.31 in (1995)
Month to date precipitation 1.18  
Year to date precipitation 39.45  
Snow  
Snow 0.00 in 0.00 in 2.70 in (1987)
Month to date snowfall 0.1  
Since 1 July snowfall 0.1  
Since 1 September snowfall 0.1  
Snow Depth -    
Sea Level Pressure  
Sea Level Pressure 30.13 in    
Wind  
Wind Speed 6 mph (SW)    
Max Wind Speed 12 mph    
Max Gust Speed 18 mph    
Visibility 10 miles    
Events      
T = Trace of Precipitation, MM = Missing Value Source: NWS Daily Summary

Daily Weather History Graph

Daily Weather History Graph

Search for Another Location

Airport:

Trip Planner

Search our weather history database for the weather conditions in past years. The results will help you decide how hot, cold, wet, or windy it might be!

Date:

Astronomy

Nov. 11, 2013 Rise Set
Actual Time 6:43 AM EST 4:47 PM EST
Civil Twilight 6:14 AM EST 5:16 PM EST
Nautical Twilight 5:41 AM EST 5:49 PM EST
Astronomical Twilight 5:09 AM EST 6:21 PM EST
Moon 1:27 PM EST (11/11) 12:24 AM EST (11/11)
Length of Visible Light 11h 02m
Length of Day
10h 04m
Waxing Gibbous, 66% of the Moon is Illuminated
Nov 11
Waxing Gibbous
Nov 17
Full
Nov 25
Last Quarter
Dec 2
New
Dec 9
First Quarter

Hourly Weather History & Observations

Time (EST) Temp. Windchill Dew Point Humidity Pressure Visibility Wind Dir Wind Speed Gust Speed Precip Events Conditions
12:15 AM 44.6 °F 40.2 °F 28.4 °F 53% 30.12 in 10.0 mi West 8.1 mph - N/A   Mostly Cloudy
12:35 AM 44.6 °F 40.2 °F 26.6 °F 49% 30.13 in 10.0 mi West 8.1 mph - N/A   Scattered Clouds
12:55 AM 42.8 °F 39.3 °F 26.6 °F 53% 30.14 in 10.0 mi West 5.8 mph - N/A   Partly Cloudy
1:15 AM 41.0 °F 38.0 °F 26.6 °F 57% 30.14 in 10.0 mi West 4.6 mph - N/A   Clear
1:35 AM 41.0 °F 36.4 °F 26.6 °F 57% 30.16 in 10.0 mi WSW 6.9 mph - N/A   Clear
1:55 AM 41.0 °F 37.1 °F 26.6 °F 57% 30.17 in 10.0 mi WSW 5.8 mph - N/A   Partly Cloudy
2:15 AM 41.0 °F 38.0 °F 26.6 °F 57% 30.18 in 10.0 mi WSW 4.6 mph - N/A   Mostly Cloudy
2:35 AM 41.0 °F 37.1 °F 26.6 °F 57% 30.18 in 10.0 mi WSW 5.8 mph - N/A   Overcast
2:55 AM 41.0 °F 38.0 °F 26.6 °F 57% 30.18 in 10.0 mi WSW 4.6 mph - N/A   Scattered Clouds
3:15 AM 39.2 °F 35.0 °F 26.6 °F 61% 30.19 in 10.0 mi West 5.8 mph - N/A   Partly Cloudy
3:35 AM 39.2 °F 33.6 °F 26.6 °F 61% 30.18 in 10.0 mi West 8.1 mph - N/A   Clear
3:55 AM 41.0 °F 37.1 °F 26.6 °F 57% 30.19 in 10.0 mi West 5.8 mph - N/A   Clear
4:15 AM 39.2 °F 34.2 °F 26.6 °F 61% 30.19 in 10.0 mi West 6.9 mph - N/A   Clear
4:35 AM 39.2 °F 35.9 °F 26.6 °F 61% 30.20 in 10.0 mi West 4.6 mph - N/A   Clear
4:55 AM 37.4 °F 34.9 °F 26.6 °F 65% 30.20 in 10.0 mi South 3.5 mph - N/A   Clear
5:15 AM 35.6 °F - 26.6 °F 70% 30.20 in 10.0 mi Calm Calm - N/A   Clear
5:35 AM 37.4 °F 33.8 °F 26.6 °F 65% 30.21 in 10.0 mi West 4.6 mph - N/A   Clear
5:55 AM 37.4 °F - 26.6 °F 65% 30.21 in 10.0 mi Calm Calm - N/A   Clear
6:15 AM 35.6 °F - 26.6 °F 70% 30.21 in 10.0 mi Calm Calm - N/A   Clear
6:35 AM 32.0 °F - 26.6 °F 80% 30.22 in 10.0 mi Calm Calm - N/A   Clear
6:55 AM 32.0 °F - 26.6 °F 80% 30.22 in 10.0 mi Calm Calm - N/A   Clear
7:15 AM 32.0 °F - 26.6 °F 80% 30.24 in 10.0 mi Calm Calm - N/A   Clear
7:35 AM 32.0 °F 28.7 °F 26.6 °F 80% 30.24 in 10.0 mi SSW 3.5 mph - N/A   Clear
7:55 AM 37.4 °F - 26.6 °F 65% 30.23 in 10.0 mi Calm Calm - N/A   Clear
8:15 AM 39.2 °F - 28.4 °F 65% 30.24 in 10.0 mi Calm Calm - N/A   Clear
8:35 AM 41.0 °F - 28.4 °F 61% 30.23 in 10.0 mi Calm Calm - N/A   Clear
8:55 AM 42.8 °F 41.1 °F 28.4 °F 57% 30.24 in 10.0 mi WSW 3.5 mph - N/A   Clear
9:15 AM 44.6 °F 41.4 °F 28.4 °F 53% 30.24 in 10.0 mi WSW 5.8 mph - N/A   Clear
9:35 AM 44.6 °F 42.2 °F 28.4 °F 53% 30.23 in 10.0 mi WSW 4.6 mph - N/A   Clear
9:55 AM 44.6 °F 40.2 °F 28.4 °F 53% 30.22 in 10.0 mi West 8.1 mph - N/A   Clear
10:15 AM 44.6 °F 41.4 °F 28.4 °F 53% 30.22 in 10.0 mi WSW 5.8 mph - N/A   Clear
10:35 AM 46.4 °F 42.9 °F 28.4 °F 50% 30.21 in 10.0 mi SW 6.9 mph - N/A   Clear
10:55 AM 46.4 °F 42.9 °F 28.4 °F 50% 30.21 in 10.0 mi SW 6.9 mph - N/A   Clear
11:15 AM 48.2 °F - 30.2 °F 50% 30.20 in 10.0 mi WSW 8.1 mph - N/A   Clear
11:35 AM 50.0 °F - 28.4 °F 43% 30.19 in 10.0 mi SW 10.4 mph - N/A   Clear
11:55 AM 50.0 °F - 30.2 °F 47% 30.18 in 10.0 mi SSW 10.4 mph - N/A   Partly Cloudy
12:15 PM 50.0 °F - 30.2 °F 47% 30.17 in 10.0 mi SSW 8.1 mph 16.1 mph N/A   Mostly Cloudy
12:35 PM 50.0 °F - 28.4 °F 43% 30.16 in 10.0 mi SW 9.2 mph 17.3 mph N/A   Mostly Cloudy
12:55 PM 50.0 °F - 30.2 °F 47% 30.15 in 10.0 mi SSW 6.9 mph - N/A   Mostly Cloudy
1:15 PM 50.0 °F - 32.0 °F 50% 30.14 in 10.0 mi SSW 6.9 mph - N/A   Overcast
1:35 PM 50.0 °F - 30.2 °F 47% 30.12 in 10.0 mi South 8.1 mph - N/A   Overcast
1:55 PM 51.8 °F - 32.0 °F 47% 30.11 in 10.0 mi South 10.4 mph - N/A   Mostly Cloudy
2:15 PM 50.0 °F - 30.2 °F 47% 30.11 in 10.0 mi SSW 9.2 mph - N/A   Overcast
2:35 PM 50.0 °F - 30.2 °F 47% 30.10 in 10.0 mi SSW 10.4 mph 16.1 mph N/A   Overcast
2:55 PM 50.0 °F - 28.4 °F 43% 30.10 in 10.0 mi SSW 10.4 mph - N/A   Overcast
3:15 PM 50.0 °F - 30.2 °F 47% 30.09 in 10.0 mi South 10.4 mph 16.1 mph N/A   Overcast
3:35 PM 50.0 °F - 30.2 °F 47% 30.09 in 10.0 mi SSW 8.1 mph - N/A   Overcast
3:55 PM 50.0 °F - 30.2 °F 47% 30.09 in 10.0 mi SSW 8.1 mph - N/A   Overcast
4:15 PM 50.0 °F - 32.0 °F 50% 30.08 in 10.0 mi South 6.9 mph - N/A   Overcast
4:35 PM 50.0 °F - 32.0 °F 50% 30.07 in 10.0 mi South 6.9 mph - N/A   Overcast
4:55 PM 50.0 °F - 32.0 °F 50% 30.06 in 10.0 mi South 8.1 mph - N/A   Overcast
5:15 PM 50.0 °F - 32.0 °F 50% 30.06 in 10.0 mi South 5.8 mph - N/A   Overcast
5:35 PM 50.0 °F - 32.0 °F 50% 30.06 in 10.0 mi South 8.1 mph - N/A   Overcast
5:55 PM 50.0 °F - 32.0 °F 50% 30.06 in 10.0 mi South 8.1 mph - N/A   Overcast
6:15 PM 48.2 °F - 32.0 °F 54% 30.05 in 10.0 mi South 11.5 mph - N/A   Overcast
6:35 PM 48.2 °F - 32.0 °F 54% 30.04 in 10.0 mi South 10.4 mph 18.4 mph N/A   Overcast
6:55 PM 48.2 °F - 32.0 °F 54% 30.04 in 10.0 mi SSW 10.4 mph - N/A   Overcast
7:15 PM 48.2 °F - 32.0 °F 54% 30.03 in 10.0 mi South 9.2 mph - N/A   Overcast
7:35 PM 48.2 °F - 32.0 °F 54% 30.03 in 10.0 mi South 10.4 mph - N/A   Overcast
7:55 PM 48.2 °F - 32.0 °F 54% 30.02 in 10.0 mi SSW 9.2 mph - N/A   Overcast
8:15 PM 48.2 °F - 32.0 °F 54% 30.02 in 10.0 mi SSW 8.1 mph - N/A   Mostly Cloudy
8:35 PM 48.2 °F - 32.0 °F 54% 30.02 in 10.0 mi SSW 6.9 mph - N/A   Mostly Cloudy
8:55 PM 48.2 °F - 32.0 °F 54% 30.01 in 10.0 mi South 8.1 mph - N/A   Overcast
9:15 PM 48.2 °F - 32.0 °F 54% 30.01 in 10.0 mi South 6.9 mph - N/A   Overcast
9:35 PM 48.2 °F - 32.0 °F 54% 30.01 in 10.0 mi South 8.1 mph - N/A   Overcast
9:55 PM 48.2 °F - 32.0 °F 54% 30.00 in 10.0 mi South 6.9 mph - N/A   Overcast
10:15 PM 48.2 °F - 32.0 °F 54% 29.99 in 10.0 mi SSW 8.1 mph - N/A   Overcast
10:35 PM 48.2 °F - 32.0 °F 54% 29.99 in 10.0 mi SSW 6.9 mph - N/A   Overcast
10:55 PM 48.2 °F - 32.0 °F 54% 29.99 in 10.0 mi SSW 5.8 mph - N/A   Overcast
11:15 PM 48.2 °F - 32.0 °F 54% 29.99 in 10.0 mi SSW 6.9 mph - N/A   Overcast
11:35 PM 48.2 °F - 33.8 °F 58% 29.98 in 10.0 mi South 4.6 mph - N/A   Overcast
11:55 PM 48.2 °F - 33.8 °F 58% 29.98 in 10.0 mi SSW 4.6 mph - N/A   Overcast